Location: G�ppingen
(48.7089°N, 9.6563°E)
Time: 09:46:03
(UTC+02:00)

M-CUBED/EXP-1 PRIME - Pass Details

Date: 29 March 2019
Orbit: 430 x 671 km, 101.7° (Epoch: 24 April)

Event Time Altitude Azimuth Distance (km) Brightness Sun altitude
Rises 05:25:10 0° 101° (E) 2,679 ? -7.5°
Reaches altitude 10° 05:28:33 10° 68° (ENE) 1,857 ? -7.0°
Maximum altitude 05:29:54 12° 48° (NE) 1,785 ? -6.8°
Drops below altitude 10° 05:31:17 10° 28° (NNE) 1,910 ? -6.6°
Sets 05:34:54 0° 357° (N) 2,881 ? -6.0°
